SBI1311 OMDB-UUDD

Flight info

Callsign SBI1311
Flight time 4h 37m
Altitude 35000
Route DAVMO M318 OTISO/N0462F320 L713 PAXER P718 SOMAD B143 KRS A240 KERUL/K0833F320 Z581 ADEDA/K0835F340 Z581 AKT N193 ATNUR L864 GEKPA L736 OLOPI OLOPI3L
Aircraft A321/M-SDE3FGHIRWY/LB1

Departure

Time 2026-04-22 09:55
Airport Dubai International Airport (OMDB)

Arrival

Time 2026-04-22 14:32
Airport Domodedovo International Airport (UUDD)
Time Latitude Longitude Altitude Speed Heading
2026-04-22 09:35 25.25228 55.38035 33 ft 0 kts 34°
2026-04-22 09:47 25.25208 55.38020 33 ft 4 kts 34°
2026-04-22 09:47 25.25180 55.37999 32 ft 5 kts 38°
2026-04-22 09:47 25.25156 55.37971 28 ft 5 kts 82°
2026-04-22 09:48 25.25160 55.37937 31 ft 4 kts 109°
2026-04-22 09:48 25.25162 55.37927 30 ft 0 kts 123°
2026-04-22 09:51 25.25162 55.37928 30 ft 0 kts 123°
2026-04-22 09:51 25.25161 55.37930 32 ft 2 kts 123°
2026-04-22 09:52 25.25147 55.37955 31 ft 7 kts 121°
2026-04-22 09:52 25.25113 55.38016 32 ft 10 kts 122°
2026-04-22 09:52 25.25072 55.38089 33 ft 13 kts 122°
2026-04-22 09:52 25.25009 55.38160 34 ft 13 kts 167°
2026-04-22 09:53 25.24933 55.38130 37 ft 10 kts 210°
2026-04-22 09:53 25.24881 55.38095 40 ft 8 kts 212°
2026-04-22 09:53 25.24836 55.38045 40 ft 11 kts 238°
2026-04-22 09:53 25.24837 55.37964 40 ft 11 kts 300°
2026-04-22 09:54 25.24842 55.37955 40 ft 0 kts 300°
2026-04-22 09:54 25.24865 55.37913 40 ft 28 kts 302°
2026-04-22 09:54 25.25091 55.37516 40 ft 94 kts 301°
2026-04-22 09:54 25.25559 55.36691 30 ft 150 kts 305°
2026-04-22 09:55 25.26218 55.35656 336 ft 165 kts 304°
2026-04-22 09:55 25.26810 55.34583 624 ft 170 kts 303°
2026-04-22 09:55 25.27468 55.33396 1014 ft 188 kts 304°
2026-04-22 09:55 25.28157 55.32136 1606 ft 197 kts 301°
2026-04-22 09:56 25.28880 55.30815 2248 ft 205 kts 304°
2026-04-22 09:56 25.29960 55.29760 2975 ft 218 kts 332°
2026-04-22 09:56 25.31516 55.29422 3376 ft 244 kts
2026-04-22 09:56 25.33125 55.30186 3755 ft 266 kts 43°
2026-04-22 09:57 25.34151 55.31893 4509 ft 274 kts 70°
2026-04-22 09:57 25.34971 55.33872 4939 ft 292 kts 54°
2026-04-22 09:57 25.36542 55.35306 5575 ft 299 kts 22°
2026-04-22 09:57 25.38525 55.36040 6263 ft 302 kts 15°
2026-04-22 09:58 25.40544 55.36713 6943 ft 305 kts 15°
2026-04-22 09:58 25.42587 55.37391 7623 ft 307 kts 15°
2026-04-22 09:58 25.44639 55.38072 8278 ft 309 kts 15°
2026-04-22 09:58 25.46668 55.38916 8916 ft 313 kts 24°
2026-04-22 09:59 25.48600 55.40050 9551 ft 316 kts 30°
2026-04-22 09:59 25.50466 55.41320 10025 ft 324 kts 32°
2026-04-22 09:59 25.52427 55.42715 10119 ft 343 kts 32°
2026-04-22 09:59 25.54481 55.44177 10242 ft 359 kts 31°
2026-04-22 10:00 25.56645 55.45686 10363 ft 374 kts 31°
2026-04-22 10:00 25.58905 55.47221 10486 ft 389 kts 30°
2026-04-22 10:00 25.61268 55.48797 10606 ft 403 kts 30°
2026-04-22 10:00 25.63709 55.50403 10771 ft 413 kts 30°
2026-04-22 10:01 25.66205 55.52039 11152 ft 418 kts 29°
2026-04-22 10:01 25.68709 55.53684 11604 ft 420 kts 29°
2026-04-22 10:01 25.71233 55.55348 12085 ft 422 kts 29°
2026-04-22 10:01 25.73750 55.57016 12655 ft 421 kts 29°
2026-04-22 10:02 25.76270 55.58691 13086 ft 425 kts 29°
2026-04-22 10:02 25.78817 55.60385 13535 ft 427 kts 29°
2026-04-22 10:02 25.81326 55.62057 13932 ft 429 kts 28°
2026-04-22 10:02 25.83555 55.63543 14292 ft 431 kts 28°
2026-04-22 10:03 25.86130 55.65262 14710 ft 433 kts 29°
2026-04-22 10:03 25.88699 55.67016 15112 ft 435 kts 30°
2026-04-22 10:03 25.91270 55.68820 15508 ft 437 kts 30°
2026-04-22 10:03 25.93834 55.70647 15889 ft 439 kts 30°
2026-04-22 10:04 25.96416 55.72497 16290 ft 442 kts 30°
2026-04-22 10:04 25.99002 55.74348 16679 ft 444 kts 30°
2026-04-22 10:04 26.01610 55.76209 17082 ft 445 kts 30°
2026-04-22 10:04 26.04338 55.77825 17449 ft 444 kts 19°
2026-04-22 10:05 26.07259 55.78891 17818 ft 442 kts
2026-04-22 10:05 26.10294 55.79391 18181 ft 439 kts 360°
2026-04-22 10:05 26.13348 55.79338 18489 ft 438 kts 352°
2026-04-22 10:05 26.16392 55.79087 18797 ft 440 kts 352°
2026-04-22 10:06 26.19471 55.79014 19098 ft 446 kts
2026-04-22 10:06 26.22533 55.79483 19395 ft 452 kts
2026-04-22 10:06 26.25669 55.80158 19711 ft 455 kts
2026-04-22 10:06 26.28751 55.80812 20018 ft 457 kts
2026-04-22 10:07 26.31893 55.81472 20311 ft 460 kts
2026-04-22 10:07 26.35041 55.82126 20594 ft 462 kts
2026-04-22 10:07 26.38215 55.82782 20866 ft 464 kts
2026-04-22 10:07 26.41404 55.83443 21123 ft 466 kts
2026-04-22 10:08 26.44597 55.84110 21355 ft 468 kts
2026-04-22 10:08 26.47813 55.84785 21589 ft 470 kts
2026-04-22 10:08 26.51042 55.85464 21809 ft 472 kts
2026-04-22 10:08 26.54253 55.86137 22256 ft 467 kts
2026-04-22 10:09 26.57428 55.86802 22771 ft 462 kts
2026-04-22 10:09 26.60577 55.87465 23295 ft 457 kts
2026-04-22 10:09 26.63652 55.88113 23675 ft 454 kts
2026-04-22 10:09 26.66778 55.88765 23783 ft 459 kts
2026-04-22 10:10 26.69937 55.89420 23897 ft 463 kts
2026-04-22 10:10 26.73110 55.90081 24007 ft 466 kts
2026-04-22 10:10 26.76309 55.90749 24127 ft 470 kts
2026-04-22 10:10 26.79553 55.91322 24242 ft 472 kts
2026-04-22 10:11 26.82817 55.91768 24361 ft 474 kts
2026-04-22 10:11 26.86120 55.92131 24471 ft 477 kts
2026-04-22 10:11 26.89436 55.92463 24588 ft 481 kts
2026-04-22 10:11 26.92784 55.92804 24711 ft 484 kts
2026-04-22 10:12 26.96139 55.93171 24827 ft 486 kts
2026-04-22 10:12 26.99510 55.93568 24950 ft 489 kts
2026-04-22 10:12 27.02859 55.93984 25069 ft 491 kts
2026-04-22 10:12 27.06260 55.94416 25248 ft 491 kts
2026-04-22 10:13 27.09649 55.94849 25441 ft 491 kts
2026-04-22 10:13 27.13049 55.95281 25635 ft 490 kts
2026-04-22 10:13 27.16435 55.95707 25851 ft 490 kts
2026-04-22 10:13 27.19818 55.96126 26056 ft 489 kts
2026-04-22 10:14 27.23208 55.96539 26261 ft 489 kts
2026-04-22 10:14 27.25954 55.96871 26426 ft 489 kts
2026-04-22 10:14 27.29330 55.97280 26623 ft 488 kts
2026-04-22 10:14 27.32714 55.97697 26814 ft 488 kts
2026-04-22 10:15 27.36092 55.98115 27017 ft 486 kts
2026-04-22 10:15 27.39465 55.98533 27173 ft 487 kts
2026-04-22 10:15 27.42830 55.98953 27356 ft 487 kts
2026-04-22 10:15 27.46165 55.99371 27551 ft 487 kts
2026-04-22 10:16 27.49540 55.99792 27751 ft 487 kts
2026-04-22 10:16 27.52913 56.00213 27954 ft 486 kts
2026-04-22 10:16 27.56272 56.00630 28152 ft 486 kts
2026-04-22 10:16 27.59640 56.01047 28343 ft 486 kts
2026-04-22 10:17 27.62995 56.01461 28545 ft 485 kts
2026-04-22 10:17 27.66359 56.01876 28749 ft 485 kts
2026-04-22 10:17 27.69710 56.02290 28959 ft 485 kts
2026-04-22 10:17 27.73067 56.02707 29170 ft 484 kts
2026-04-22 10:18 27.76406 56.03124 29376 ft 482 kts
2026-04-22 10:18 27.79736 56.03540 29551 ft 482 kts
2026-04-22 10:18 27.83078 56.03958 29720 ft 482 kts
2026-04-22 10:18 27.86420 56.04378 29920 ft 482 kts
2026-04-22 10:19 27.89749 56.04796 30080 ft 482 kts
2026-04-22 10:19 27.93075 56.05212 30223 ft 481 kts
2026-04-22 10:19 27.96368 56.05624 30363 ft 481 kts
2026-04-22 10:19 27.99686 56.06040 30510 ft 482 kts
2026-04-22 10:20 28.03024 56.06458 30649 ft 482 kts
2026-04-22 10:20 28.06349 56.06875 30822 ft 481 kts
2026-04-22 10:20 28.13018 56.07707 30889 ft 487 kts
2026-04-22 10:21 28.19800 56.08573 30888 ft 493 kts
2026-04-22 10:21 28.26630 56.09546 30889 ft 497 kts
2026-04-22 10:22 28.33529 56.10560 30892 ft 502 kts
2026-04-22 10:22 28.40494 56.11563 30898 ft 505 kts
2026-04-22 10:23 28.47499 56.12554 30908 ft 509 kts
2026-04-22 10:23 28.54517 56.13546 30920 ft 512 kts
2026-04-22 10:24 28.61616 56.14554 30931 ft 516 kts
2026-04-22 10:24 28.68765 56.15573 30938 ft 519 kts
2026-04-22 10:25 28.72332 56.16085 31195 ft 514 kts
2026-04-22 10:25 28.75872 56.16598 31522 ft 509 kts
2026-04-22 10:25 28.79360 56.17108 31834 ft 503 kts
2026-04-22 10:25 28.82821 56.17619 32160 ft 498 kts
2026-04-22 10:26 28.86242 56.18128 32484 ft 492 kts
2026-04-22 10:26 28.89581 56.18630 32807 ft 487 kts
2026-04-22 10:26 28.92374 56.19053 33085 ft 482 kts
2026-04-22 10:26 28.95817 56.19579 33439 ft 477 kts
2026-04-22 10:27 29.02429 56.20488 33495 ft 480 kts 360°
2026-04-22 10:27 29.09105 56.21353 33488 ft 485 kts
2026-04-22 10:28 29.15755 56.22283 33493 ft 490 kts
2026-04-22 10:28 29.22547 56.23283 33487 ft 494 kts
2026-04-22 10:29 29.28233 56.24118 33489 ft 496 kts
2026-04-22 10:29 29.36217 56.25264 33483 ft 499 kts
2026-04-22 10:30 29.43134 56.26261 33488 ft 502 kts
2026-04-22 10:30 29.48954 56.27098 33488 ft 504 kts
2026-04-22 10:31 29.55942 56.28108 33488 ft 507 kts
2026-04-22 10:31 29.62927 56.29118 33487 ft 509 kts
2026-04-22 10:32 29.69993 56.30139 33481 ft 512 kts
2026-04-22 10:32 29.77085 56.31172 33469 ft 515 kts
2026-04-22 10:33 29.80596 56.31686 33625 ft 512 kts
2026-04-22 10:33 29.84112 56.32206 33979 ft 505 kts
2026-04-22 10:33 29.87568 56.32721 34277 ft 498 kts
2026-04-22 10:33 29.90971 56.33235 34708 ft 485 kts
2026-04-22 10:34 29.94237 56.33743 35722 ft 460 kts
2026-04-22 10:34 29.97425 56.34288 35638 ft 467 kts
2026-04-22 10:34 30.03880 56.35251 35628 ft 469 kts 359°
2026-04-22 10:35 30.10409 56.36062 35617 ft 473 kts 359°
2026-04-22 10:35 30.16938 56.36958 35606 ft 478 kts
2026-04-22 10:36 30.23569 56.37950 35602 ft 482 kts
2026-04-22 10:36 30.30249 56.38939 35597 ft 485 kts
2026-04-22 10:37 30.40350 56.40391 35589 ft 489 kts
2026-04-22 10:38 30.47123 56.41373 35586 ft 491 kts
2026-04-22 10:38 30.53914 56.42367 35608 ft 493 kts
2026-04-22 10:39 30.60747 56.43373 35597 ft 495 kts
2026-04-22 10:39 30.67588 56.44370 35595 ft 496 kts
2026-04-22 10:40 30.74406 56.45362 35597 ft 498 kts
2026-04-22 10:40 30.81290 56.46371 35621 ft 499 kts
2026-04-22 10:41 30.88198 56.47387 35638 ft 501 kts
2026-04-22 10:41 30.95113 56.48403 35658 ft 502 kts
2026-04-22 10:42 31.02075 56.49422 35684 ft 504 kts
2026-04-22 10:42 31.09047 56.50439 35723 ft 505 kts
2026-04-22 10:43 31.16034 56.51459 35754 ft 506 kts
2026-04-22 10:43 31.22993 56.52478 35757 ft 507 kts
2026-04-22 10:44 31.29998 56.53502 35815 ft 505 kts
2026-04-22 10:44 31.33450 56.54013 36225 ft 493 kts 360°
2026-04-22 10:44 31.36822 56.54519 36476 ft 487 kts 359°
2026-04-22 10:45 31.43541 56.55506 36514 ft 486 kts 359°
2026-04-22 10:45 31.50264 56.56484 36544 ft 486 kts 359°
2026-04-22 10:46 31.56976 56.57466 36585 ft 486 kts 359°
2026-04-22 10:46 31.63641 56.58448 36594 ft 485 kts 359°
2026-04-22 10:47 31.70345 56.59430 36604 ft 485 kts 359°
2026-04-22 10:47 31.77043 56.60420 36607 ft 485 kts 360°
2026-04-22 10:48 31.83746 56.61419 36630 ft 485 kts 360°
2026-04-22 10:48 31.90446 56.62417 36643 ft 485 kts 360°
2026-04-22 10:49 31.97118 56.63410 36679 ft 485 kts 360°
2026-04-22 10:49 32.03805 56.64397 36695 ft 485 kts 360°
2026-04-22 10:50 32.10509 56.65390 36725 ft 486 kts 359°
2026-04-22 10:50 32.17227 56.66395 36685 ft 488 kts
2026-04-22 10:51 32.23975 56.67412 36622 ft 489 kts
2026-04-22 10:51 32.30749 56.68434 36569 ft 491 kts
2026-04-22 10:52 32.37538 56.69449 36524 ft 493 kts
2026-04-22 10:52 32.44381 56.70469 36478 ft 496 kts
2026-04-22 10:53 32.51197 56.71498 36446 ft 498 kts
2026-04-22 10:53 32.58084 56.72537 36414 ft 499 kts
2026-04-22 10:54 32.64994 56.73576 36396 ft 501 kts
2026-04-22 10:54 32.71926 56.74632 36390 ft 502 kts
2026-04-22 10:55 32.78873 56.75682 36391 ft 503 kts
2026-04-22 10:55 32.85835 56.76731 36398 ft 504 kts
2026-04-22 10:56 32.92798 56.77789 36408 ft 506 kts
2026-04-22 10:56 32.99787 56.78854 36423 ft 506 kts
2026-04-22 10:57 33.06743 56.79911 36443 ft 507 kts
2026-04-22 10:57 33.13767 56.80979 36444 ft 508 kts
2026-04-22 10:58 33.20750 56.81389 36461 ft 494 kts 346°
2026-04-22 10:58 33.27236 56.79335 36481 ft 474 kts 327°
2026-04-22 10:59 33.32694 56.75253 36491 ft 457 kts 314°
2026-04-22 10:59 33.37699 56.70566 36509 ft 458 kts 314°
2026-04-22 11:00 33.42700 56.65893 36535 ft 458 kts 314°
2026-04-22 11:00 33.47717 56.61189 36559 ft 459 kts 313°
2026-04-22 11:01 33.52756 56.56459 36574 ft 459 kts 314°
2026-04-22 11:01 33.57789 56.51721 36600 ft 460 kts 314°
2026-04-22 11:02 33.62797 56.46994 36627 ft 460 kts 314°
2026-04-22 11:02 33.67835 56.42235 36663 ft 461 kts 314°
2026-04-22 11:02 33.70331 56.39880 37339 ft 450 kts 313°
2026-04-22 11:03 33.72760 56.37611 37971 ft 436 kts 313°
2026-04-22 11:03 33.75144 56.35389 38103 ft 434 kts 313°
2026-04-22 11:03 33.77527 56.33132 37890 ft 437 kts 313°
2026-04-22 11:03 33.79912 56.30850 37695 ft 440 kts 312°
2026-04-22 11:04 33.82315 56.28545 37511 ft 444 kts 313°
2026-04-22 11:04 33.84748 56.26215 37335 ft 448 kts 313°
2026-04-22 11:04 33.87197 56.23877 37171 ft 452 kts 313°
2026-04-22 11:04 33.89676 56.21517 37028 ft 455 kts 313°
2026-04-22 11:05 33.92142 56.19173 36891 ft 458 kts 313°
2026-04-22 11:05 33.94682 56.16754 36778 ft 461 kts 313°
2026-04-22 11:05 33.97182 56.14376 37036 ft 455 kts 313°
2026-04-22 11:05 33.99658 56.12029 37322 ft 449 kts 313°
2026-04-22 11:06 34.02093 56.09730 37612 ft 442 kts 313°
2026-04-22 11:06 34.04488 56.07457 37813 ft 437 kts 313°
2026-04-22 11:06 34.06838 56.05208 37831 ft 436 kts 313°
2026-04-22 11:07 34.11578 56.00643 37773 ft 436 kts 313°
2026-04-22 11:07 34.16324 55.96082 37727 ft 436 kts 313°
2026-04-22 11:08 34.21070 55.91533 37680 ft 436 kts 313°
2026-04-22 11:08 34.25826 55.86972 37639 ft 436 kts 313°
2026-04-22 11:09 34.30584 55.82392 37597 ft 436 kts 313°
2026-04-22 11:09 34.35333 55.77811 37553 ft 436 kts 313°
2026-04-22 11:10 34.40084 55.73225 37516 ft 437 kts 313°
2026-04-22 11:10 34.44832 55.68648 37485 ft 437 kts 313°
2026-04-22 11:11 34.49554 55.64082 37456 ft 437 kts 313°
2026-04-22 11:11 34.54303 55.59474 37427 ft 437 kts 313°
2026-04-22 11:12 34.59056 55.54863 37387 ft 437 kts 313°
2026-04-22 11:12 34.63808 55.50242 37365 ft 437 kts 313°
2026-04-22 11:13 34.68557 55.45610 37342 ft 438 kts 313°
2026-04-22 11:13 34.73306 55.40972 37316 ft 438 kts 313°
2026-04-22 11:14 34.78059 55.36327 37296 ft 438 kts 313°
2026-04-22 11:14 34.82806 55.31684 37263 ft 438 kts 313°
2026-04-22 11:15 34.87564 55.27025 37247 ft 439 kts 313°
2026-04-22 11:15 34.92395 55.22515 37223 ft 447 kts 321°
2026-04-22 11:15 34.95242 55.20775 37205 ft 458 kts 331°
2026-04-22 11:16 34.98291 55.19634 37182 ft 468 kts 338°
2026-04-22 11:16 35.03568 55.18094 37163 ft 469 kts 338°
2026-04-22 11:17 35.09913 55.16221 37145 ft 469 kts 338°
2026-04-22 11:17 35.16261 55.14330 37132 ft 470 kts 338°
2026-04-22 11:18 35.22625 55.12428 37118 ft 470 kts 338°
2026-04-22 11:18 35.28973 55.10528 37104 ft 470 kts 338°
2026-04-22 11:19 35.35340 55.08631 37095 ft 471 kts 338°
2026-04-22 11:19 35.41710 55.06728 37098 ft 471 kts 338°
2026-04-22 11:20 35.48051 55.04834 37093 ft 471 kts 338°
2026-04-22 11:20 35.54422 55.02912 37098 ft 471 kts 338°
2026-04-22 11:21 35.60802 55.00989 37096 ft 472 kts 339°
2026-04-22 11:21 35.67208 54.99115 37097 ft 473 kts 339°
2026-04-22 11:22 35.73629 54.97278 37105 ft 474 kts 339°
2026-04-22 11:22 35.80050 54.95433 37101 ft 473 kts 339°
2026-04-22 11:23 35.86422 54.93574 37111 ft 473 kts 339°
2026-04-22 11:23 35.92834 54.91693 37118 ft 473 kts 339°
2026-04-22 11:24 35.99262 54.89820 37125 ft 474 kts 339°
2026-04-22 11:24 36.05671 54.87954 37134 ft 474 kts 339°
2026-04-22 11:25 36.12108 54.86062 37152 ft 474 kts 339°
2026-04-22 11:25 36.18484 54.84184 37177 ft 474 kts 339°
2026-04-22 11:26 36.24911 54.82299 37198 ft 474 kts 339°
2026-04-22 11:26 36.31339 54.80411 37221 ft 475 kts 339°
2026-04-22 11:27 36.37770 54.78517 37243 ft 475 kts 339°
2026-04-22 11:27 36.44206 54.76610 37257 ft 475 kts 339°
2026-04-22 11:28 36.50647 54.74697 37270 ft 476 kts 339°
2026-04-22 11:28 36.57101 54.72782 37294 ft 477 kts 339°
2026-04-22 11:29 36.63574 54.70859 37317 ft 479 kts 339°
2026-04-22 11:29 36.70017 54.68939 37343 ft 480 kts 340°
2026-04-22 11:30 36.76612 54.67347 37370 ft 485 kts 345°
2026-04-22 11:30 36.83361 54.66211 37358 ft 487 kts 346°
2026-04-22 11:31 36.90047 54.65123 37358 ft 487 kts 345°
2026-04-22 11:31 36.96758 54.63899 37353 ft 487 kts 345°
2026-04-22 11:32 37.03461 54.62602 37356 ft 487 kts 345°
2026-04-22 11:32 37.10178 54.61319 37365 ft 489 kts 345°
2026-04-22 11:33 37.16911 54.60056 37373 ft 489 kts 345°
2026-04-22 11:33 37.23651 54.58793 37383 ft 490 kts 345°
2026-04-22 11:34 37.30395 54.57505 37389 ft 490 kts 345°
2026-04-22 11:34 37.37140 54.56200 37393 ft 490 kts 345°
2026-04-22 11:35 37.43809 54.54761 37403 ft 485 kts 338°
2026-04-22 11:35 37.50005 54.51667 37396 ft 476 kts 329°
2026-04-22 11:36 37.56039 54.48197 37406 ft 477 kts 329°
2026-04-22 11:36 37.62081 54.44735 37412 ft 477 kts 329°
2026-04-22 11:37 37.68132 54.41280 37421 ft 477 kts 330°
2026-04-22 11:37 37.74138 54.37829 37427 ft 477 kts 329°
2026-04-22 11:38 37.80183 54.34346 37436 ft 477 kts 330°
2026-04-22 11:38 37.89254 54.29099 37450 ft 477 kts 330°
2026-04-22 11:39 37.95301 54.25600 37459 ft 478 kts 330°
2026-04-22 11:39 38.01350 54.22090 37464 ft 478 kts 330°
2026-04-22 11:40 38.07360 54.18598 37473 ft 478 kts 330°
2026-04-22 11:40 38.13400 54.15088 37479 ft 478 kts 330°
2026-04-22 11:41 38.19456 54.11553 37481 ft 478 kts 330°
2026-04-22 11:41 38.25491 54.08021 37492 ft 478 kts 330°
2026-04-22 11:42 38.31541 54.04486 37500 ft 478 kts 330°
2026-04-22 11:42 38.37603 54.00941 37508 ft 478 kts 330°
2026-04-22 11:43 38.43611 53.97407 37518 ft 478 kts 330°
2026-04-22 11:43 38.49657 53.93841 37527 ft 479 kts 330°
2026-04-22 11:44 38.55707 53.90272 37537 ft 479 kts 330°
2026-04-22 11:44 38.61759 53.86699 37545 ft 479 kts 330°
2026-04-22 11:45 38.67807 53.83114 37560 ft 479 kts 330°
2026-04-22 11:45 38.73853 53.79521 37568 ft 479 kts 330°
2026-04-22 11:46 38.79903 53.75933 37578 ft 479 kts 330°
2026-04-22 11:46 38.85952 53.72342 37600 ft 479 kts 330°
2026-04-22 11:47 38.91997 53.68738 37601 ft 479 kts 330°
2026-04-22 11:47 38.98008 53.65144 37610 ft 479 kts 330°
2026-04-22 11:48 39.04064 53.61536 37619 ft 479 kts 330°
2026-04-22 11:48 39.10110 53.57941 37628 ft 479 kts 330°
2026-04-22 11:49 39.16149 53.54342 37634 ft 478 kts 330°
2026-04-22 11:49 39.22192 53.50731 37646 ft 478 kts 330°
2026-04-22 11:50 39.28234 53.47117 37651 ft 478 kts 330°
2026-04-22 11:50 39.34273 53.43494 37667 ft 478 kts 330°
2026-04-22 11:51 39.40281 53.39886 37673 ft 478 kts 330°
2026-04-22 11:51 39.46313 53.36245 37677 ft 478 kts 330°
2026-04-22 11:52 39.52337 53.32606 37688 ft 478 kts 330°
2026-04-22 11:52 39.58370 53.28959 37697 ft 478 kts 330°
2026-04-22 11:53 39.64401 53.25304 37703 ft 478 kts 330°
2026-04-22 11:53 39.70427 53.21637 37718 ft 478 kts 330°
2026-04-22 11:54 39.76425 53.17993 37722 ft 478 kts 330°
2026-04-22 11:54 39.82455 53.14335 37727 ft 478 kts 330°
2026-04-22 11:55 39.88476 53.10652 37728 ft 478 kts 330°
2026-04-22 11:55 39.94492 53.06962 37740 ft 478 kts 330°
2026-04-22 11:56 40.00510 53.03269 37748 ft 478 kts 330°
2026-04-22 11:56 40.06650 52.99895 37750 ft 481 kts 336°
2026-04-22 11:57 40.12937 52.96998 37762 ft 481 kts 336°
2026-04-22 11:57 40.19260 52.94074 37782 ft 482 kts 336°
2026-04-22 11:58 40.25585 52.91134 37788 ft 482 kts 336°
2026-04-22 11:58 40.31906 52.88183 37785 ft 482 kts 336°
2026-04-22 11:59 40.38219 52.85242 37799 ft 482 kts 336°
2026-04-22 11:59 40.44513 52.82313 37804 ft 482 kts 336°
2026-04-22 12:00 40.50834 52.79357 37821 ft 482 kts 336°
2026-04-22 12:00 40.57149 52.76384 37829 ft 482 kts 336°
2026-04-22 12:01 40.63476 52.73408 37837 ft 482 kts 336°
2026-04-22 12:01 40.69803 52.70432 37851 ft 482 kts 336°
2026-04-22 12:02 40.76107 52.67460 37857 ft 482 kts 336°
2026-04-22 12:02 40.82388 52.64492 37864 ft 482 kts 336°
2026-04-22 12:03 40.88691 52.61502 37874 ft 481 kts 336°
2026-04-22 12:03 40.94996 52.58493 37879 ft 481 kts 336°
2026-04-22 12:04 41.00229 52.55951 37884 ft 481 kts 335°
2026-04-22 12:04 41.06514 52.52875 37885 ft 481 kts 335°
2026-04-22 12:05 41.12813 52.49804 37889 ft 481 kts 336°
2026-04-22 12:05 41.19103 52.46739 37893 ft 481 kts 336°
2026-04-22 12:06 41.25392 52.43664 37896 ft 481 kts 335°
2026-04-22 12:06 41.31679 52.40580 37905 ft 481 kts 336°
2026-04-22 12:07 41.37968 52.37498 37908 ft 481 kts 336°
2026-04-22 12:07 41.44197 52.34461 37684 ft 474 kts 336°
2026-04-22 12:08 41.47288 52.32960 37009 ft 472 kts 336°
2026-04-22 12:08 41.50375 52.31449 36322 ft 471 kts 336°
2026-04-22 12:08 41.53439 52.29936 35647 ft 469 kts 336°
2026-04-22 12:08 41.56500 52.28411 34977 ft 468 kts 336°
2026-04-22 12:09 41.59549 52.26878 34331 ft 466 kts 336°
2026-04-22 12:09 41.62566 52.25352 34063 ft 460 kts 336°
2026-04-22 12:09 41.65566 52.23831 33942 ft 463 kts 336°
2026-04-22 12:09 41.68590 52.22294 33992 ft 465 kts 336°
2026-04-22 12:10 41.74562 52.19306 34107 ft 450 kts 336°
2026-04-22 12:10 41.77462 52.17899 34346 ft 447 kts 336°
2026-04-22 12:10 41.80378 52.16485 34094 ft 446 kts 336°
2026-04-22 12:11 41.83299 52.15055 33333 ft 446 kts 336°
2026-04-22 12:11 41.86213 52.13614 32545 ft 447 kts 336°
2026-04-22 12:11 41.89135 52.12154 31785 ft 448 kts 335°
2026-04-22 12:11 41.91977 52.10464 31181 ft 444 kts 332°
2026-04-22 12:12 41.94781 52.08676 30986 ft 447 kts 331°
2026-04-22 12:12 41.97573 52.06850 30971 ft 448 kts 331°
2026-04-22 12:12 42.03170 52.03129 30983 ft 449 kts 330°
2026-04-22 12:13 42.08783 51.99417 31052 ft 449 kts 330°
2026-04-22 12:13 42.11590 51.97575 31190 ft 449 kts 331°
2026-04-22 12:13 42.14408 51.95730 31403 ft 449 kts 330°
2026-04-22 12:14 42.17186 51.93911 31596 ft 449 kts 330°
2026-04-22 12:14 42.20029 51.92049 31785 ft 449 kts 330°
2026-04-22 12:14 42.22836 51.90214 31968 ft 449 kts 330°
2026-04-22 12:14 42.25652 51.88370 32147 ft 449 kts 330°
2026-04-22 12:15 42.28457 51.86528 32326 ft 449 kts 330°
2026-04-22 12:15 42.31232 51.84701 32499 ft 449 kts 330°
2026-04-22 12:15 42.34043 51.82845 32672 ft 449 kts 330°
2026-04-22 12:15 42.36853 51.80987 32835 ft 449 kts 330°
2026-04-22 12:16 42.39652 51.79131 33005 ft 449 kts 330°
2026-04-22 12:16 42.41955 51.77605 33153 ft 449 kts 330°
2026-04-22 12:16 42.44764 51.75742 33311 ft 449 kts 330°
2026-04-22 12:16 42.47563 51.73884 33471 ft 449 kts 330°
2026-04-22 12:17 42.50372 51.72021 33635 ft 449 kts 330°
2026-04-22 12:17 42.53171 51.70161 33790 ft 449 kts 330°
2026-04-22 12:17 42.55942 51.68319 33942 ft 449 kts 330°
2026-04-22 12:17 42.58750 51.66451 34076 ft 448 kts 330°
2026-04-22 12:18 42.61548 51.64587 34202 ft 449 kts 329°
2026-04-22 12:18 42.64347 51.62717 34324 ft 449 kts 329°
2026-04-22 12:18 42.67152 51.60842 34438 ft 449 kts 329°
2026-04-22 12:18 42.69950 51.58969 34565 ft 449 kts 329°
2026-04-22 12:19 42.72753 51.57093 34689 ft 449 kts 329°
2026-04-22 12:19 42.75557 51.55214 34830 ft 448 kts 329°
2026-04-22 12:19 42.78347 51.53340 34936 ft 449 kts 329°
2026-04-22 12:19 42.81144 51.51459 34952 ft 449 kts 329°
2026-04-22 12:20 42.86754 51.47689 34951 ft 449 kts 329°
2026-04-22 12:20 42.92364 51.43916 34951 ft 449 kts 329°
2026-04-22 12:21 42.97959 51.40136 34944 ft 449 kts 329°
2026-04-22 12:21 43.03566 51.36355 34948 ft 449 kts 329°
2026-04-22 12:22 43.09171 51.32554 34952 ft 450 kts 329°
2026-04-22 12:22 43.14768 51.28744 34958 ft 450 kts 329°
2026-04-22 12:23 43.20377 51.24919 34955 ft 450 kts 329°
2026-04-22 12:23 43.25955 51.21125 34958 ft 450 kts 329°
2026-04-22 12:24 43.31567 51.17293 34960 ft 450 kts 329°
2026-04-22 12:24 43.37166 51.13450 34961 ft 450 kts 329°
2026-04-22 12:25 43.42776 51.09602 34963 ft 450 kts 329°
2026-04-22 12:25 43.48388 51.05748 34955 ft 451 kts 329°
2026-04-22 12:26 43.53999 51.01881 34965 ft 451 kts 329°
2026-04-22 12:26 43.59602 50.98008 34950 ft 451 kts 329°
2026-04-22 12:27 43.65167 50.94010 34946 ft 450 kts 326°
2026-04-22 12:27 43.70544 50.89627 34942 ft 449 kts 324°
2026-04-22 12:28 43.75885 50.85114 34940 ft 449 kts 324°
2026-04-22 12:28 43.81253 50.80664 34942 ft 450 kts 325°
2026-04-22 12:29 43.86645 50.76273 34944 ft 450 kts 325°
2026-04-22 12:29 43.92015 50.71900 34945 ft 450 kts 325°
2026-04-22 12:30 44.00113 50.65264 34949 ft 451 kts 325°
2026-04-22 12:31 44.05506 50.60820 34951 ft 451 kts 325°
2026-04-22 12:31 44.10905 50.56358 34952 ft 451 kts 325°
2026-04-22 12:32 44.16307 50.51889 34953 ft 451 kts 325°
2026-04-22 12:32 44.24408 50.45177 34954 ft 452 kts 324°
2026-04-22 12:33 44.29811 50.40689 34954 ft 452 kts 324°
2026-04-22 12:33 44.35211 50.36189 34954 ft 452 kts 324°
2026-04-22 12:34 44.40601 50.31689 34955 ft 452 kts 324°
2026-04-22 12:34 44.45994 50.27165 34958 ft 452 kts 324°
2026-04-22 12:35 44.51385 50.22639 34955 ft 451 kts 324°
2026-04-22 12:35 44.56742 50.18143 34958 ft 451 kts 324°
2026-04-22 12:36 44.62118 50.13613 34953 ft 451 kts 323°
2026-04-22 12:36 44.67520 50.09039 34955 ft 451 kts 323°
2026-04-22 12:37 44.72862 50.04528 34954 ft 450 kts 323°
2026-04-22 12:37 44.78231 49.99980 34954 ft 450 kts 323°
2026-04-22 12:38 44.83591 49.95419 34951 ft 450 kts 323°
2026-04-22 12:38 44.88938 49.90860 34947 ft 450 kts 323°
2026-04-22 12:39 44.96967 49.84009 34941 ft 449 kts 322°
2026-04-22 12:40 45.02315 49.79430 34948 ft 449 kts 322°
2026-04-22 12:40 45.07646 49.74856 34944 ft 449 kts 322°
2026-04-22 12:41 45.12998 49.70243 34941 ft 449 kts 322°
2026-04-22 12:41 45.18334 49.65642 34945 ft 449 kts 322°
2026-04-22 12:42 45.23682 49.61034 34941 ft 450 kts 322°
2026-04-22 12:42 45.29025 49.56411 34939 ft 449 kts 322°
2026-04-22 12:43 45.34332 49.51788 34940 ft 449 kts 322°
2026-04-22 12:43 45.39676 49.47132 34929 ft 450 kts 322°
2026-04-22 12:44 45.45024 49.42476 34931 ft 450 kts 322°
2026-04-22 12:44 45.50324 49.37845 34938 ft 450 kts 322°
2026-04-22 12:45 45.55671 49.33146 34936 ft 450 kts 322°
2026-04-22 12:45 45.60987 49.28484 34929 ft 450 kts 322°
2026-04-22 12:46 45.66311 49.23815 34930 ft 450 kts 322°
2026-04-22 12:46 45.71667 49.19095 34937 ft 450 kts 321°
2026-04-22 12:47 45.76965 49.14400 34934 ft 451 kts 321°
2026-04-22 12:47 45.82314 49.09666 34933 ft 451 kts 321°
2026-04-22 12:48 45.87651 49.04924 34932 ft 451 kts 321°
2026-04-22 12:48 45.92976 49.00176 34931 ft 451 kts 321°
2026-04-22 12:49 45.98311 48.95421 34933 ft 451 kts 321°
2026-04-22 12:49 46.03609 48.90699 34934 ft 450 kts 321°
2026-04-22 12:50 46.08941 48.85924 34932 ft 450 kts 321°
2026-04-22 12:50 46.14245 48.81157 34918 ft 450 kts 321°
2026-04-22 12:51 46.18660 48.77182 34924 ft 449 kts 321°
2026-04-22 12:51 46.23959 48.72402 34925 ft 449 kts 321°
2026-04-22 12:52 46.29247 48.67622 34924 ft 448 kts 321°
2026-04-22 12:52 46.34530 48.62839 34918 ft 448 kts 320°
2026-04-22 12:53 46.39799 48.58053 34912 ft 448 kts 320°
2026-04-22 12:53 46.45074 48.53246 34914 ft 448 kts 320°
2026-04-22 12:54 46.50328 48.48458 34905 ft 448 kts 320°
2026-04-22 12:54 46.55606 48.43626 34902 ft 448 kts 320°
2026-04-22 12:55 46.60893 48.38776 34900 ft 449 kts 320°
2026-04-22 12:55 46.66187 48.33915 34897 ft 450 kts 320°
2026-04-22 12:56 46.71482 48.29040 34891 ft 451 kts 320°
2026-04-22 12:56 46.76794 48.24134 34894 ft 452 kts 320°
2026-04-22 12:57 46.82114 48.19205 34884 ft 453 kts 320°
2026-04-22 12:57 46.87449 48.14265 34881 ft 454 kts 320°
2026-04-22 12:58 46.92756 48.09334 34877 ft 455 kts 320°
2026-04-22 12:58 46.98116 48.04340 34877 ft 456 kts 320°
2026-04-22 12:59 47.03472 47.99331 34876 ft 457 kts 320°
2026-04-22 12:59 47.08835 47.94313 34875 ft 457 kts 320°
2026-04-22 13:00 47.14204 47.89281 34865 ft 458 kts 320°
2026-04-22 13:00 47.19565 47.84234 34878 ft 458 kts 320°
2026-04-22 13:01 47.24911 47.79191 34872 ft 459 kts 320°
2026-04-22 13:01 47.30286 47.74105 34893 ft 459 kts 320°
2026-04-22 13:02 47.35654 47.69015 34880 ft 459 kts 320°
2026-04-22 13:02 47.41046 47.63900 34884 ft 460 kts 320°
2026-04-22 13:03 47.46426 47.58775 34882 ft 460 kts 320°
2026-04-22 13:03 47.51796 47.53643 34880 ft 460 kts 320°
2026-04-22 13:04 47.57176 47.48491 34878 ft 460 kts 320°
2026-04-22 13:04 47.62561 47.43330 34879 ft 461 kts 320°
2026-04-22 13:05 47.67902 47.38185 34875 ft 461 kts 320°
2026-04-22 13:05 47.73278 47.33000 34877 ft 460 kts 320°
2026-04-22 13:06 47.78650 47.27807 34863 ft 460 kts 320°
2026-04-22 13:06 47.84014 47.22621 34861 ft 460 kts 320°
2026-04-22 13:07 47.89387 47.17397 34860 ft 460 kts 320°
2026-04-22 13:07 47.94747 47.12172 34857 ft 460 kts 321°
2026-04-22 13:08 48.00073 47.06978 34856 ft 460 kts 321°
2026-04-22 13:08 48.05427 47.01734 34850 ft 460 kts 321°
2026-04-22 13:09 48.10786 46.96469 34846 ft 460 kts 321°
2026-04-22 13:09 48.16133 46.91196 34840 ft 460 kts 321°
2026-04-22 13:10 48.21493 46.85913 34834 ft 460 kts 321°
2026-04-22 13:10 48.26811 46.80666 34826 ft 460 kts 321°
2026-04-22 13:11 48.32156 46.75359 34824 ft 460 kts 321°
2026-04-22 13:11 48.37494 46.70034 34823 ft 460 kts 321°
2026-04-22 13:12 48.42838 46.64711 34816 ft 460 kts 321°
2026-04-22 13:12 48.48171 46.59386 34812 ft 460 kts 321°
2026-04-22 13:13 48.53510 46.54043 34808 ft 460 kts 321°
2026-04-22 13:13 48.58845 46.48683 34800 ft 460 kts 321°
2026-04-22 13:14 48.64180 46.43316 34795 ft 460 kts 321°
2026-04-22 13:14 48.69516 46.37947 34787 ft 460 kts 321°
2026-04-22 13:15 48.74808 46.32588 34778 ft 460 kts 321°
2026-04-22 13:15 48.80129 46.27183 34778 ft 460 kts 321°
2026-04-22 13:16 48.85451 46.21769 34766 ft 460 kts 321°
2026-04-22 13:16 48.90766 46.16339 34767 ft 460 kts 321°
2026-04-22 13:17 48.96079 46.10900 34756 ft 460 kts 321°
2026-04-22 13:17 49.01363 46.05475 34760 ft 460 kts 321°
2026-04-22 13:18 49.06666 46.00026 34742 ft 460 kts 321°
2026-04-22 13:18 49.11976 45.94559 34734 ft 460 kts 321°
2026-04-22 13:19 49.17282 45.89071 34732 ft 460 kts 321°
2026-04-22 13:19 49.22587 45.83573 34733 ft 460 kts 321°
2026-04-22 13:20 49.27892 45.78072 34726 ft 461 kts 321°
2026-04-22 13:20 49.33201 45.72532 34720 ft 461 kts 321°
2026-04-22 13:21 49.38493 45.67002 34716 ft 461 kts 321°
2026-04-22 13:21 49.43795 45.61458 34711 ft 461 kts 321°
2026-04-22 13:22 49.49057 45.55932 34707 ft 461 kts 322°
2026-04-22 13:22 49.54353 45.50357 34702 ft 461 kts 322°
2026-04-22 13:23 49.59646 45.44769 34703 ft 461 kts 322°
2026-04-22 13:23 49.64936 45.39168 34696 ft 461 kts 322°
2026-04-22 13:24 49.70222 45.33553 34701 ft 461 kts 322°
2026-04-22 13:24 49.75501 45.27945 34692 ft 461 kts 322°
2026-04-22 13:25 49.80794 45.22308 34694 ft 461 kts 322°
2026-04-22 13:25 49.86069 45.16654 34694 ft 461 kts 322°
2026-04-22 13:26 49.91304 45.11026 34699 ft 461 kts 322°
2026-04-22 13:26 49.96573 45.05353 34699 ft 461 kts 322°
2026-04-22 13:27 50.01841 44.99682 34706 ft 461 kts 322°
2026-04-22 13:27 50.07107 44.93996 34711 ft 460 kts 322°
2026-04-22 13:28 50.12361 44.88280 34715 ft 460 kts 322°
2026-04-22 13:28 50.17620 44.82567 34723 ft 460 kts 322°
2026-04-22 13:29 50.22874 44.76836 34732 ft 460 kts 322°
2026-04-22 13:29 50.28127 44.71095 34733 ft 460 kts 322°
2026-04-22 13:30 50.33343 44.65386 34735 ft 460 kts 322°
2026-04-22 13:30 50.38577 44.59624 34744 ft 460 kts 322°
2026-04-22 13:31 50.43817 44.53842 34753 ft 460 kts 322°
2026-04-22 13:31 50.49058 44.48043 34759 ft 460 kts 322°
2026-04-22 13:32 50.54296 44.42236 34766 ft 461 kts 322°
2026-04-22 13:32 50.59534 44.36422 34771 ft 460 kts 322°
2026-04-22 13:33 50.64773 44.30593 34772 ft 460 kts 322°
2026-04-22 13:33 50.69989 44.24760 34774 ft 460 kts 322°
2026-04-22 13:34 50.75208 44.18901 34783 ft 460 kts 322°
2026-04-22 13:34 50.80427 44.13028 34783 ft 460 kts 322°
2026-04-22 13:35 50.85611 44.07183 34786 ft 460 kts 322°
2026-04-22 13:35 50.90856 44.01261 34790 ft 460 kts 322°
2026-04-22 13:36 50.96045 43.95381 34791 ft 460 kts 322°
2026-04-22 13:36 51.01252 43.89451 34795 ft 460 kts 322°
2026-04-22 13:37 51.06463 43.83521 34796 ft 460 kts 322°
2026-04-22 13:37 51.11670 43.77575 34794 ft 460 kts 322°
2026-04-22 13:38 51.16842 43.71644 34796 ft 460 kts 322°
2026-04-22 13:38 51.24616 43.62682 34796 ft 460 kts 322°
2026-04-22 13:39 51.28933 43.57691 34794 ft 460 kts 322°
2026-04-22 13:39 51.34127 43.51687 34797 ft 460 kts 322°
2026-04-22 13:40 51.39313 43.45670 34801 ft 460 kts 322°
2026-04-22 13:40 51.44494 43.39637 34804 ft 460 kts 322°
2026-04-22 13:41 51.49670 43.33612 34805 ft 460 kts 322°
2026-04-22 13:41 51.54853 43.27536 34802 ft 460 kts 322°
2026-04-22 13:42 51.60028 43.21462 34805 ft 460 kts 322°
2026-04-22 13:42 51.65201 43.15377 34809 ft 460 kts 322°
2026-04-22 13:43 51.70331 43.09305 34809 ft 460 kts 322°
2026-04-22 13:43 51.75497 43.03186 34810 ft 460 kts 322°
2026-04-22 13:44 51.80665 42.97062 34816 ft 460 kts 322°
2026-04-22 13:44 51.85826 42.90916 34814 ft 461 kts 322°
2026-04-22 13:45 51.90985 42.84755 34815 ft 461 kts 322°
2026-04-22 13:45 51.96109 42.78595 34818 ft 461 kts 322°
2026-04-22 13:46 52.01262 42.72403 34816 ft 461 kts 322°
2026-04-22 13:46 52.06419 42.66203 34820 ft 461 kts 322°
2026-04-22 13:47 52.11560 42.59980 34817 ft 461 kts 322°
2026-04-22 13:47 52.16709 42.53738 34813 ft 461 kts 322°
2026-04-22 13:48 52.21830 42.47511 34815 ft 461 kts 322°
2026-04-22 13:48 52.26977 42.41240 34814 ft 461 kts 322°
2026-04-22 13:49 52.32110 42.34957 34813 ft 462 kts 322°
2026-04-22 13:49 52.37259 42.28640 34817 ft 462 kts 322°
2026-04-22 13:50 52.42397 42.22323 34813 ft 462 kts 322°
2026-04-22 13:50 52.47531 42.15987 34811 ft 462 kts 322°
2026-04-22 13:51 52.52656 42.09650 34808 ft 462 kts 322°
2026-04-22 13:51 52.57778 42.03272 34807 ft 462 kts 322°
2026-04-22 13:52 52.62903 41.96895 34807 ft 462 kts 322°
2026-04-22 13:52 52.68029 41.90506 34803 ft 461 kts 322°
2026-04-22 13:53 52.73104 41.84146 34798 ft 462 kts 322°
2026-04-22 13:53 52.78215 41.77722 34795 ft 461 kts 322°
2026-04-22 13:54 52.83320 41.71288 34794 ft 461 kts 322°
2026-04-22 13:54 52.88418 41.64825 34792 ft 461 kts 322°
2026-04-22 13:55 52.93514 41.58354 34792 ft 461 kts 323°
2026-04-22 13:55 52.98611 41.51888 34788 ft 461 kts 323°
2026-04-22 13:56 53.03698 41.45398 34783 ft 461 kts 323°
2026-04-22 13:56 53.08768 41.38910 34778 ft 460 kts 323°
2026-04-22 13:57 53.13837 41.32398 34776 ft 460 kts 323°
2026-04-22 13:57 53.18898 41.25879 34773 ft 459 kts 323°
2026-04-22 13:58 53.23920 41.19396 34776 ft 459 kts 323°
2026-04-22 13:58 53.28978 41.12848 34773 ft 459 kts 323°
2026-04-22 13:59 53.34023 41.06308 34773 ft 458 kts 323°
2026-04-22 13:59 53.39053 40.99739 34772 ft 458 kts 323°
2026-04-22 14:00 53.44079 40.93166 34774 ft 458 kts 323°
2026-04-22 14:00 53.49090 40.86594 34769 ft 457 kts 323°
2026-04-22 14:01 53.54103 40.79993 34770 ft 457 kts 323°
2026-04-22 14:01 53.59107 40.73391 34775 ft 457 kts 323°
2026-04-22 14:02 53.62421 40.69015 34774 ft 457 kts 323°
2026-04-22 14:02 53.66315 40.63871 34771 ft 457 kts 323°
2026-04-22 14:03 53.71106 40.57500 34771 ft 457 kts 323°
2026-04-22 14:03 53.75811 40.50318 34463 ft 455 kts 309°
2026-04-22 14:04 53.77691 40.45971 33787 ft 456 kts 307°
2026-04-22 14:04 53.79519 40.41598 32976 ft 456 kts 308°
2026-04-22 14:04 53.81313 40.37225 32165 ft 456 kts 308°
2026-04-22 14:04 53.83113 40.32803 31359 ft 456 kts 309°
2026-04-22 14:05 53.84909 40.28380 30539 ft 456 kts 309°
2026-04-22 14:05 53.86723 40.23933 29714 ft 456 kts 310°
2026-04-22 14:05 53.90342 40.15133 27663 ft 457 kts 310°
2026-04-22 14:06 53.92166 40.10708 26600 ft 459 kts 309°
2026-04-22 14:06 53.94004 40.06247 25511 ft 461 kts 309°
2026-04-22 14:06 53.95841 40.01776 24412 ft 463 kts 308°
2026-04-22 14:06 53.97689 39.97252 23500 ft 462 kts 308°
2026-04-22 14:07 53.99507 39.92781 22656 ft 456 kts 307°
2026-04-22 14:07 54.01276 39.88419 21841 ft 450 kts 307°
2026-04-22 14:07 54.03037 39.84066 21048 ft 444 kts 307°
2026-04-22 14:07 54.04780 39.79751 20284 ft 439 kts 307°
2026-04-22 14:08 54.06503 39.75481 19860 ft 436 kts 307°
2026-04-22 14:08 54.08227 39.71208 19700 ft 435 kts 307°
2026-04-22 14:08 54.09928 39.66991 19721 ft 435 kts 307°
2026-04-22 14:08 54.11627 39.62774 19148 ft 429 kts 306°
2026-04-22 14:09 54.13314 39.58578 18367 ft 425 kts 306°
2026-04-22 14:09 54.14979 39.54435 17553 ft 420 kts 306°
2026-04-22 14:09 54.16603 39.50392 16726 ft 415 kts 306°
2026-04-22 14:09 54.18224 39.46340 15939 ft 410 kts 305°
2026-04-22 14:10 54.19823 39.42331 15160 ft 405 kts 305°
2026-04-22 14:10 54.21406 39.38351 14389 ft 400 kts 305°
2026-04-22 14:10 54.22928 39.34522 13696 ft 396 kts 305°
2026-04-22 14:10 54.24470 39.30638 12922 ft 392 kts 304°
2026-04-22 14:11 54.26000 39.26787 12163 ft 387 kts 304°
2026-04-22 14:11 54.27507 39.22995 11426 ft 382 kts 304°
2026-04-22 14:11 54.28979 39.19290 10693 ft 378 kts 304°
2026-04-22 14:11 54.30451 39.15577 9985 ft 374 kts 304°
2026-04-22 14:12 54.31885 39.11949 9715 ft 358 kts 304°
2026-04-22 14:12 54.33242 39.08502 9579 ft 339 kts 304°
2026-04-22 14:12 54.34521 39.05240 9442 ft 322 kts 303°
2026-04-22 14:12 54.35746 39.02119 9299 ft 306 kts 303°
2026-04-22 14:13 54.36890 38.99197 9159 ft 293 kts 303°
2026-04-22 14:13 54.38000 38.96353 9024 ft 280 kts 303°
2026-04-22 14:13 54.39067 38.93622 8948 ft 271 kts 303°
2026-04-22 14:13 54.40121 38.90926 8952 ft 271 kts 303°
2026-04-22 14:14 54.41175 38.88231 8950 ft 271 kts 303°
2026-04-22 14:14 54.42228 38.85535 8952 ft 271 kts 303°
2026-04-22 14:14 54.43270 38.82866 8953 ft 271 kts 303°
2026-04-22 14:14 54.44320 38.80166 8951 ft 271 kts 303°
2026-04-22 14:15 54.45365 38.77473 8952 ft 271 kts 303°
2026-04-22 14:15 54.46401 38.74795 8949 ft 271 kts 303°
2026-04-22 14:15 54.47453 38.72083 8951 ft 271 kts 304°
2026-04-22 14:15 54.48649 38.69567 8936 ft 271 kts 313°
2026-04-22 14:16 54.50046 38.67396 8573 ft 270 kts 321°
2026-04-22 14:16 54.51610 38.65625 8196 ft 269 kts 329°
2026-04-22 14:16 54.53260 38.64191 7955 ft 267 kts 332°
2026-04-22 14:16 54.54927 38.62754 7942 ft 268 kts 331°
2026-04-22 14:17 54.56593 38.61310 7714 ft 267 kts 331°
2026-04-22 14:17 54.58249 38.59873 7324 ft 265 kts 331°
2026-04-22 14:17 54.59882 38.58458 6962 ft 264 kts 331°
2026-04-22 14:17 54.61515 38.57041 6595 ft 262 kts 330°
2026-04-22 14:18 54.63144 38.55622 6247 ft 261 kts 330°
2026-04-22 14:18 54.64761 38.54214 5955 ft 256 kts 330°
2026-04-22 14:18 54.66330 38.52851 5942 ft 250 kts 330°
2026-04-22 14:18 54.67875 38.51507 5942 ft 251 kts 330°
2026-04-22 14:19 54.69438 38.50147 5940 ft 251 kts 330°
2026-04-22 14:19 54.71057 38.48835 5942 ft 260 kts 333°
2026-04-22 14:19 54.72704 38.47591 5938 ft 262 kts 334°
2026-04-22 14:19 54.74386 38.46351 5935 ft 262 kts 334°
2026-04-22 14:20 54.77742 38.43877 5937 ft 262 kts 334°
2026-04-22 14:20 54.79428 38.42624 5934 ft 262 kts 333°
2026-04-22 14:20 54.81091 38.41386 5934 ft 262 kts 334°
2026-04-22 14:21 54.84449 38.38876 5936 ft 262 kts 333°
2026-04-22 14:21 54.86080 38.37648 5934 ft 262 kts 333°
2026-04-22 14:22 54.89417 38.35134 5932 ft 262 kts 333°
2026-04-22 14:22 54.91094 38.33869 5932 ft 262 kts 333°
2026-04-22 14:22 54.94447 38.31342 5927 ft 263 kts 333°
2026-04-22 14:23 54.96111 38.30086 5925 ft 262 kts 333°
2026-04-22 14:23 54.97783 38.28819 5928 ft 263 kts 333°
2026-04-22 14:23 54.99469 38.27543 5922 ft 263 kts 333°
2026-04-22 14:23 55.01146 38.26281 5921 ft 263 kts 333°
2026-04-22 14:24 55.02832 38.25001 5923 ft 263 kts 333°
2026-04-22 14:24 55.04494 38.23739 5923 ft 263 kts 333°
2026-04-22 14:24 55.06169 38.22470 5924 ft 263 kts 333°
2026-04-22 14:24 55.07854 38.21190 5923 ft 263 kts 333°
2026-04-22 14:25 55.09532 38.19910 5918 ft 262 kts 333°
2026-04-22 14:25 55.11209 38.18626 5919 ft 263 kts 333°
2026-04-22 14:25 55.12861 38.17359 5918 ft 263 kts 333°
2026-04-22 14:25 55.14530 38.16085 5902 ft 254 kts 333°
2026-04-22 14:26 55.15591 38.15277 5811 ft 248 kts 333°
2026-04-22 14:26 55.17634 38.13720 5597 ft 236 kts 333°
2026-04-22 14:26 55.19111 38.12587 5447 ft 225 kts 333°
2026-04-22 14:26 55.20071 38.11851 5318 ft 219 kts 333°
2026-04-22 14:27 55.21428 38.10811 4948 ft 213 kts 332°
2026-04-22 14:27 55.22782 38.09772 4372 ft 212 kts 333°
2026-04-22 14:27 55.24097 38.08625 4038 ft 208 kts 326°
2026-04-22 14:27 55.25320 38.07284 3940 ft 207 kts 323°
2026-04-22 14:28 55.26851 38.05482 3611 ft 193 kts 322°
2026-04-22 14:28 55.27589 38.04603 3460 ft 186 kts 322°
2026-04-22 14:28 55.28626 38.03367 3199 ft 176 kts 322°
2026-04-22 14:28 55.29608 38.02195 2964 ft 165 kts 321°
2026-04-22 14:29 55.30508 38.01122 2752 ft 151 kts 321°
2026-04-22 14:29 55.31358 38.00105 2547 ft 146 kts 321°
2026-04-22 14:29 55.32191 37.99108 2354 ft 145 kts 321°
2026-04-22 14:29 55.33020 37.98115 2163 ft 143 kts 322°
2026-04-22 14:30 55.33844 37.97131 1951 ft 142 kts 322°
2026-04-22 14:30 55.34659 37.96155 1753 ft 142 kts 321°
2026-04-22 14:30 55.35465 37.95196 1543 ft 142 kts 322°
2026-04-22 14:30 55.36299 37.94206 1333 ft 143 kts 321°
2026-04-22 14:31 55.37117 37.93206 1118 ft 142 kts 322°
2026-04-22 14:31 55.37926 37.92258 955 ft 142 kts 323°
2026-04-22 14:31 55.38760 37.91253 811 ft 144 kts 322°
2026-04-22 14:31 55.39570 37.90261 656 ft 144 kts 323°
2026-04-22 14:32 55.40385 37.89290 569 ft 132 kts 323°
2026-04-22 14:32 55.41009 37.88513 580 ft 65 kts 328°
2026-04-22 14:32 55.41271 37.88358 581 ft 36 kts 355°
2026-04-22 14:32 55.41321 37.88351 582 ft 0 kts 354°
2026-04-22 14:34 55.41337 37.88348 583 ft 4 kts 355°
2026-04-22 14:34 55.41375 37.88389 581 ft 11 kts 61°
2026-04-22 14:34 55.41325 37.88521 583 ft 17 kts 142°
2026-04-22 14:34 55.41216 37.88651 578 ft 20 kts 146°
2026-04-22 14:35 55.41200 37.88846 582 ft 18 kts 62°
2026-04-22 14:35 55.41228 37.88952 581 ft 10 kts 82°
2026-04-22 14:35 55.41239 37.89054 582 ft 6 kts 98°
2026-04-22 14:35 55.41203 37.89121 580 ft 11 kts 142°
2026-04-22 14:36 55.41128 37.89218 582 ft 14 kts 134°
2026-04-22 14:36 55.41126 37.89302 583 ft 7 kts 66°
2026-04-22 14:36 55.41135 37.89328 583 ft 0 kts 55°